{"data":{"norad_id":65759,"intl_designator":"2025-216AB","name":"STARLINK-34692","alt_names":[],"object_type":"PAYLOAD","status":"ACTIVE","operator":null,"country":"US","launch_date":"2025-09-25","launch_site_code":"AFETR","launch_vehicle":null,"mission":null,"orbit_class":"UNKNOWN","rcs_meters":null,"size_class":null,"mass_kg":null,"dimensions":null,"purposes":["comms"],"wikipedia_slug":null,"has_3d_model":false,"image_url":null,"decayed_at":null,"tle_current":{"epoch":"2026-05-24T19:16:41.032416Z","epoch_age_seconds":92157,"freshness":"FRESH","line1":"1 65759U 25216AB  26144.80325269  .00017772  00000+0  61071-3 0  9991","line2":"2 65759  53.1620 339.5764 0000827  86.8392 273.2703 15.30201326 38155","mean_motion":15.30201326,"eccentricity":8.27e-5,"inclination_deg":53.162,"raan_deg":339.5764,"arg_perigee_deg":86.8392,"mean_anomaly_deg":273.2703,"bstar":0.00061071,"rev_number":3815,"period_min":94.105264159208,"perigee_km":474.64433833648,"apogee_km":475.77788211391,"semimajor_km":6853.3481102252,"source":"CELESTRAK","updated_at":"2026-05-25T13:38:20.934904Z"}}}